Home > Weather > Prince Albert > Past weeks

Flag for Canada Past Weather in Prince Albert, Saskatchewan, Canada — Yesterday and Last 2 Weeks

Now
55 °F

Overcast.


Feels Like: 52 °F
Forecast: 47 / 64 °F
Wind: 13 mph from Northeast

Location: Prince Albert

Current Time: May 31, 2016 at 10:21:16 AM

Latest Report: May 31, 2016 at 10:00 AM


Visibility: 15 mi

Pressure: 30.11 "Hg

Humidity: 72%

Dew Point: 46 °F

Location of Prince AlbertLocation

Past Weather in Prince Albert — Graph

°F

Prince Albert Temperature Yesterday

Maximum temperature yesterday: 66 °F (at 4:00 PM)
Minimum temperature yesterday: 37 °F (at 4:00 AM)
Average temperature yesterday: 54 °F

High & Low Weather Summary for the Past Weeks

 TemperatureHumidityPressure
High79 °F (May 19, 2:00 PM)100% (May 23, 5:00 AM)30.15 "Hg (May 23, 5:00 AM)
Low37 °F (May 30, 4:00 AM)21% (May 16, 2:00 PM)29.46 "Hg (May 23, 2:00 AM)
Average58 °F69%29.87 "Hg
* Reported May 16 9:00 AM — May 31 9:00 AM, Prince Albert, Weather by CustomWeather, © 2016

Note: Actual official high and low records may vary slightly from our data, if they occured in-between our weather recording intervals... More about our weather records

Advertising

Prince Albert Weather History for the Previous 24 Hours

Scroll right to see more
 ConditionsComfort  
Time TempWeatherWind HumidityBarometerVisibility
9:00 AM
Tue, May 31
54 °FOvercast.12 mph77%30.11 "Hg15 mi
8:00 AM54 °FMostly cloudy.9 mph82%30.11 "Hg15 mi
7:00 AM52 °FOvercast.12 mph88%30.10 "Hg15 mi
6:00 AM52 °FLow clouds.10 mph88%30.09 "Hg15 mi
5:00 AM52 °FOvercast.10 mph94%30.08 "Hg15 mi
4:00 AM52 °FOvercast.9 mph94%30.07 "Hg15 mi
3:00 AM50 °FMostly cloudy.8 mph94%30.08 "Hg15 mi
2:00 AM50 °FMostly cloudy.No wind94%30.08 "Hg15 mi
1:00 AM45 °FPassing clouds.5 mph93%30.08 "Hg15 mi
12:00 AM50 °FPassing clouds.2 mph88%30.08 "Hg15 mi
11:00 PM
Mon, May 30
48 °FPassing clouds.8 mph87%30.08 "Hg15 mi
10:00 PM50 °FPassing clouds.6 mph88%30.07 "Hg15 mi
9:00 PM57 °FOvercast.8 mph72%30.05 "Hg15 mi
8:00 PM61 °FMore clouds than sun.14 mph59%30.03 "Hg15 mi
7:00 PM63 °FMostly cloudy.12 mph52%30.03 "Hg15 mi
6:00 PM63 °FPartly sunny.12 mph56%30.02 "Hg15 mi
5:00 PM64 °FPartly sunny.9 mph52%30.01 "Hg15 mi
4:00 PM66 °FBroken clouds.N/A52%N/A15 mi
3:00 PM63 °FBroken clouds.6 mph56%30.01 "Hg15 mi
2:00 PM64 °FBroken clouds.10 mph52%30.01 "Hg15 mi
1:00 PM63 °FBroken clouds.9 mph56%30.01 "Hg15 mi
12:00 PM63 °FPartly sunny.10 mph59%30.01 "Hg15 mi
11:00 AM59 °FPartly sunny.9 mph63%30.02 "Hg15 mi
10:00 AM55 °FPartly sunny.9 mph72%30.03 "Hg15 mi
Weather by CustomWeather, © 2016

See weather overviewHow to use our weather pages